Regional Weather Roundup
Issued by NWS Jackson, KY

Home | Current Version | Previous Version | Graphics & Text | Print | Product List | Glossary On
Versions: 1 2 3 4 5 6 7 8 9 10 11 12 13 14 15 16 17 18 19 20 21 22 23 24 25 26 27 28 29 30 31 32 33 34 35 36 37 38 39 40 41 42 43 44 45 46 47 48 49 50
531
ASUS43 KJKL 122210
RWRJKL

EAST KENTUCKY HOURLY WEATHER ROUNDUP
NATIONAL WEATHER SERVICE JACKSON KY
500 PM EST FRI FEB 12 2016

NOTE: "FAIR" INDICATES FEW OR NO CLOUDS BELOW 12,000 FEET WITH
NO SIGNIFICANT WEATHER AND/OR OBSTRUCTIONS TO VISIBILITY.

* THESE REPORTS ARE NOT UNDER NWS QUALITY CONTROL AND MAY NOT
  REPORT WEATHER SUCH AS PRECIPITATION AND FOG.

KYZ079-080-083-085-087-088-110-112-115-119-120-122300
...EASTERN KENTUCKY...

CITY           SKY/WX    TMP DP  RH WIND       PRES   REMARKS
JACKSON        CLOUDY    30  20  66 W6        30.08R WCI  24
LONDON         CLOUDY    30  23  75 W8        30.12R WCI  22
SOMERSET*      CLOUDY    30  25  80 W5        30.17R WCI  25
MONTICELLO*    CLOUDY    31  26  82 W12       30.19R WCI  22
WILLIAMSBURG*  CLOUDY    32  27  80 NW5       30.14R WCI  27
MIDDLESBORO*   CLOUDY    33  26  78 CALM      30.13R
HARLAN APT*    CLOUDY    30  23  74 SW7       30.09R WCI  23
HAZARD APT*    MIX PCPN  27  19  74 W6        30.09R WCI  20
BLACK MTN*       N/A     19  19 100 W3          N/A
BIG SANDY*     CLOUDY    31  21  66 W9G16     30.05R WCI  23
MOREHEAD APT*  CLOUDY    30  19  64 W10G18    30.10R WCI  21
$$

KYZ035-036-041-042-044-050-067-078-099-122300
...CENTRAL KENTUCKY...

CITY           SKY/WX    TMP DP  RH WIND       PRES   REMARKS
MT STERLING*   CLOUDY    32  23  69 NW12      30.12R WCI  23
DANVILLE*      CLOUDY    32  23  69 W12       30.14R WCI  23
RICHMOND*      CLOUDY    30  23  74 W14       30.13R WCI  20
LEXINGTON      CLOUDY    31  20  63 W14       30.12R WCI  21
FRANKFORT      CLOUDY    31  19  61 W10G21    30.13R WCI  22
$$

KYZ091>093-OHZ055-061-077-WVZ005-015-034-035-042-122300
...SOUTHERN OHIO/WEST VIRGINIA...

CITY           SKY/WX    TMP DP  RH WIND       PRES   REMARKS
COVINGTON      CLOUDY    28  17  63 W17G24    30.10R WCI  16
COLUMBUS       CLOUDY    24  10  55 W17       30.02S WCI  11
DAYTON         LGT SNOW  24  18  77 W18       30.06R WCI  10
WILMINGTON     CLOUDY    25  14  63 W21G30    30.05R WCI  11
HUNTINGTON     CLOUDY    31  12  45 W7        30.05R WCI  24
CHARLESTON     CLOUDY    29  12  49 W8        30.03R WCI  21
PINEVILLE*       N/A     29  20  70 MISG      30.04R
BECKLEY        FLURRIES  25  18  74 W12       29.93R WCI  14
$$

VAZ002-007-008-TNZ017-027-036-066-071-122300
...SOUTHWEST VIRGINIA/EAST TENNESSEE...

CITY           SKY/WX    TMP DP  RH WIND       PRES   REMARKS
BRISTOL        CLOUDY    32  28  85 SW10      30.06R WCI  24
KNOXVILLE      CLOUDY    36  30  79 W5        30.13R WCI  32
OAK RIDGE      CLOUDY    37  28  70 W6        30.15R WCI  32
CROSSVILLE     CLOUDY    34  26  72 NW10      30.13R WCI  26
NASHVILLE      CLOUDY    41  26  55 NW12      30.21R
$$

...KEY TO REMARKS...
VSB - VISIBILITY IN MILES
WCI - WIND CHILL INDEX
HX  - HEAT INDEX

$$




USA.gov is the U.S. government's official web portal to all federal, state and local government web resources and services.